Stündliche Wetter 10-y Oktyabr

Heute, 21 Juni, Montag

Zeit Temperatur Niederschläge Wind Luftdruck Luftfeuchtigkeit
00:00 +19°C° 0 mm 2 m/S 746 mmHg 86%
01:00 +19°C° 0 mm 2 m/S 746 mmHg 86%
02:00 +18°C° 0 mm 2 m/S 746 mmHg 87%
03:00 +18°C° 0 mm 2 m/S 746 mmHg 87%
04:00 +19°C° 0 mm 2 m/S 746 mmHg 87%
05:00 +19°C° 0 mm 2 m/S 746 mmHg 87%
06:00 +19°C° 0 mm 2 m/S 746 mmHg 87%
07:00 +21°C° 0 mm 2 m/S 746 mmHg 82%
08:00 +22°C° 0 mm 3 m/S 746 mmHg 77%
09:00 +24°C° 0 mm 3 m/S 746 mmHg 72%
10:00 +25°C° 0 mm 3 m/S 746 mmHg 68%
11:00 +26°C° 0 mm 4 m/S 746 mmHg 65%
12:00 +27°C° 0 mm 4 m/S 746 mmHg 61%
13:00 +28°C° 0 mm 4 m/S 746 mmHg 59%
14:00 +28°C° 0 mm 4 m/S 746 mmHg 58%
15:00 +29°C° 0 mm 4 m/S 746 mmHg 56%
16:00 +29°C° 0 mm 3 m/S 746 mmHg 60%
17:00 +28°C° 0 mm 3 m/S 746 mmHg 64%
18:00 +28°C° 0 mm 3 m/S 745 mmHg 69%
19:00 +26°C° 0 mm 3 m/S 745 mmHg 74%
20:00 +25°C° 0 mm 3 m/S 745 mmHg 80%
21:00 +22°C° 0 mm 3 m/S 746 mmHg 86%
22:00 +21°C° 0 mm 3 m/S 746 mmHg 87%
23:00 +21°C° 0 mm 2 m/S 746 mmHg 89%

Morgen, 22 Juni, Dienstag

Zeit Temperatur Niederschläge Wind Luftdruck Luftfeuchtigkeit
00:00 +20°C° 0 mm 2 m/S 746 mmHg 91%
01:00 +19°C° 0 mm 2 m/S 746 mmHg 91%
02:00 +19°C° 0 mm 2 m/S 746 mmHg 91%
03:00 +19°C° 0 mm 2 m/S 746 mmHg 91%
04:00 +19°C° 0 mm 2 m/S 746 mmHg 90%
05:00 +19°C° 0 mm 2 m/S 746 mmHg 89%
06:00 +20°C° 0 mm 2 m/S 746 mmHg 88%
07:00 +23°C° 0 mm 2 m/S 746 mmHg 82%
08:00 +24°C° 0 mm 3 m/S 746 mmHg 75%
09:00 +26°C° 0 mm 3 m/S 747 mmHg 69%
10:00 +27°C° 0 mm 3 m/S 747 mmHg 65%
11:00 +28°C° 0 mm 4 m/S 747 mmHg 61%
12:00 +29°C° 0 mm 4 m/S 747 mmHg 57%
13:00 +30°C° 0 mm 4 m/S 747 mmHg 55%
14:00 +30°C° 0 mm 3 m/S 746 mmHg 53%
15:00 +31°C° 0 mm 3 m/S 746 mmHg 52%
16:00 +30°C° 0 mm 3 m/S 746 mmHg 56%
17:00 +30°C° 0 mm 3 m/S 746 mmHg 60%
18:00 +30°C° 0 mm 2 m/S 746 mmHg 65%
19:00 +28°C° 0 mm 2 m/S 746 mmHg 70%
20:00 +26°C° 0 mm 2 m/S 746 mmHg 75%
21:00 +24°C° 0 mm 2 m/S 746 mmHg 80%
22:00 +23°C° 0 mm 2 m/S 746 mmHg 82%
23:00 +21°C° 0 mm 2 m/S 746 mmHg 83%

übermorgen, 23 Juni, Mittwoch

Zeit Temperatur Niederschläge Wind Luftdruck Luftfeuchtigkeit
00:00 +21°C° 0 mm 2 m/S 746 mmHg 84%
01:00 +20°C° 0 mm 2 m/S 746 mmHg 85%
02:00 +20°C° 0 mm 2 m/S 746 mmHg 85%
03:00 +20°C° 0 mm 2 m/S 746 mmHg 85%
04:00 +20°C° 0 mm 2 m/S 746 mmHg 84%
05:00 +21°C° 0 mm 2 m/S 747 mmHg 83%
06:00 +21°C° 0 mm 2 m/S 747 mmHg 82%
07:00 +24°C° 0 mm 2 m/S 747 mmHg 77%
08:00 +25°C° 0 mm 2 m/S 747 mmHg 72%
09:00 +27°C° 0 mm 3 m/S 747 mmHg 67%
10:00 +28°C° 0 mm 3 m/S 747 mmHg 63%
11:00 +29°C° 0 mm 3 m/S 747 mmHg 58%
12:00 +30°C° 0 mm 3 m/S 747 mmHg 54%
13:00 +31°C° 0 mm 2 m/S 747 mmHg 52%
14:00 +31°C° 0 mm 2 m/S 747 mmHg 50%
15:00 +31°C° 0 mm 2 m/S 747 mmHg 48%
16:00 +31°C° 0 mm 2 m/S 747 mmHg 52%
17:00 +31°C° 0 mm 2 m/S 746 mmHg 57%
18:00 +30°C° 0 mm 2 m/S 746 mmHg 62%
19:00 +28°C° 0 mm 2 m/S 746 mmHg 67%
20:00 +27°C° 0 mm 2 m/S 746 mmHg 72%
21:00 +25°C° 0 mm 2 m/S 746 mmHg 77%
22:00 +24°C° 0 mm 2 m/S 746 mmHg 78%
23:00 +23°C° 0 mm 2 m/S 746 mmHg 80%

24 Juni, Donnerstag

Zeit Temperatur Niederschläge Wind Luftdruck Luftfeuchtigkeit
00:00 +23°C° 0 mm 2 m/S 746 mmHg 81%
01:00 +21°C° 0 mm 2 m/S 746 mmHg 83%
02:00 +21°C° 0 mm 2 m/S 746 mmHg 84%
03:00 +22°C° 0 mm 1 m/S 746 mmHg 86%
04:00 +22°C° 0 mm 1 m/S 746 mmHg 85%
05:00 +23°C° 0 mm 1 m/S 746 mmHg 84%
06:00 +23°C° 0 mm 1 m/S 746 mmHg 83%
07:00 +25°C° 0 mm 1 m/S 746 mmHg 79%
08:00 +27°C° 0 mm 2 m/S 746 mmHg 74%
09:00 +28°C° 0 mm 2 m/S 746 mmHg 69%
10:00 +29°C° 0 mm 2 m/S 746 mmHg 65%
11:00 +30°C° 0 mm 2 m/S 746 mmHg 62%
12:00 +31°C° 0 mm 2 m/S 746 mmHg 58%
13:00 +32°C° 0 mm 2 m/S 746 mmHg 56%
14:00 +32°C° 0 mm 2 m/S 746 mmHg 54%
15:00 +33°C° 0 mm 1 m/S 746 mmHg 51%
16:00 +33°C° 0 mm 1 m/S 746 mmHg 54%
17:00 +32°C° 0 mm 1 m/S 746 mmHg 57%
18:00 +32°C° 0 mm 1 m/S 745 mmHg 59%
19:00 +31°C° 0 mm 1 m/S 745 mmHg 63%
20:00 +27°C° 0 mm 0 m/S 745 mmHg 67%
21:00 +25°C° 0 mm 0 m/S 745 mmHg 71%
22:00 +26°C° 0 mm 1 m/S 745 mmHg 73%
23:00 +25°C° 0 mm 1 m/S 745 mmHg 75%

25 Juni, Freitag

Zeit Temperatur Niederschläge Wind Luftdruck Luftfeuchtigkeit
00:00 +25°C° 0 mm 1 m/S 744 mmHg 78%
01:00 +24°C° 0.4 mm 1 m/S 744 mmHg 80%
02:00 +23°C° 0.4 mm 1 m/S 744 mmHg 83%
03:00 +23°C° 0.4 mm 2 m/S 744 mmHg 86%
04:00 +23°C° 0 mm 1 m/S 744 mmHg 85%
05:00 +24°C° 0 mm 1 m/S 744 mmHg 85%
06:00 +24°C° 0 mm 1 m/S 744 mmHg 84%
07:00 +26°C° 0 mm 1 m/S 744 mmHg 79%
08:00 +27°C° 0 mm 1 m/S 744 mmHg 73%
09:00 +29°C° 0 mm 1 m/S 744 mmHg 67%
10:00 +30°C° 0 mm 1 m/S 744 mmHg 63%
11:00 +31°C° 0 mm 2 m/S 744 mmHg 59%
12:00 +32°C° 0 mm 2 m/S 744 mmHg 54%
13:00 +32°C° 0 mm 2 m/S 744 mmHg 53%
14:00 +32°C° 0 mm 2 m/S 744 mmHg 52%
15:00 +32°C° 0 mm 2 m/S 743 mmHg 50%
16:00 +32°C° 0 mm 2 m/S 743 mmHg 55%
17:00 +32°C° 0 mm 2 m/S 742 mmHg 59%
18:00 +31°C° 0 mm 2 m/S 742 mmHg 63%
19:00 +29°C° 0.2 mm 2 m/S 742 mmHg 68%
20:00 +27°C° 0.2 mm 2 m/S 742 mmHg 73%
21:00 +25°C° 0.2 mm 2 m/S 742 mmHg 78%
22:00 +24°C° 0.2 mm 2 m/S 741 mmHg 82%
23:00 +23°C° 0.2 mm 2 m/S 741 mmHg 85%

26 Juni, Samstag

Zeit Temperatur Niederschläge Wind Luftdruck Luftfeuchtigkeit
00:00 +21°C° 0.2 mm 2 m/S 741 mmHg 89%
01:00 +21°C° 0.5 mm 2 m/S 741 mmHg 90%
02:00 +20°C° 0.5 mm 2 m/S 741 mmHg 92%
03:00 +20°C° 0.5 mm 2 m/S 741 mmHg 93%
04:00 +21°C° 0.1 mm 2 m/S 741 mmHg 91%
05:00 +22°C° 0.1 mm 1 m/S 741 mmHg 88%
06:00 +23°C° 0.1 mm 1 m/S 741 mmHg 85%
07:00 +25°C° 0 mm 1 m/S 740 mmHg 79%
08:00 +26°C° 0 mm 1 m/S 740 mmHg 74%
09:00 +27°C° 0 mm 2 m/S 740 mmHg 68%
10:00 +28°C° 0 mm 2 m/S 740 mmHg 64%
11:00 +29°C° 0 mm 2 m/S 740 mmHg 60%
12:00 +30°C° 0 mm 3 m/S 740 mmHg 57%
13:00 +31°C° 0 mm 3 m/S 740 mmHg 55%
14:00 +31°C° 0 mm 3 m/S 740 mmHg 54%
15:00 +31°C° 0 mm 3 m/S 739 mmHg 53%
16:00 +31°C° 0 mm 2 m/S 739 mmHg 56%
17:00 +31°C° 0 mm 2 m/S 738 mmHg 59%
18:00 +31°C° 0 mm 2 m/S 738 mmHg 62%
19:00 +29°C° 0.1 mm 2 m/S 737 mmHg 67%
20:00 +27°C° 0.1 mm 2 m/S 737 mmHg 73%
21:00 +25°C° 0.1 mm 2 m/S 737 mmHg 78%
22:00 +24°C° 0.5 mm 2 m/S 737 mmHg 82%
23:00 +23°C° 0.5 mm 2 m/S 737 mmHg 86%
Mehr zeigen

Wir brauchen deine Erlaubnis

Meteoprog und unser Service Anbieter werden persönliche Daten aufbewahren, so wie Cookies, Geräte Bezeichnung oder ähnliche Technologien von deinem Gerät und Prozess, so wie Persönliche Daten Inhalte und Werbungen, genauso wie social Media und den Verkehr zu analysieren.

  • Aufbewahrung und/oder Zugang zu deiner Geräte Informationen.

    Cookies, Geräte Bezeichnung oder andere Informationen, können aufbewahrt oder Zugang zu deinem Gerät erhalten, für den Grund, der oben angegeben wird.

  • Personalisierte Werbung und Inhalte, Messungen, Einblick in das Publikum und Produkt Entwicklung.

    Werbungen und Inhalte können personalisiert werden, basierend auf ein Profil. Mehr Daten können besser personalisierte Werbungen und Inhalte hinzufügen. Werbung und Inhalte können gezeigt und gemessen werden. Einblicke über das Publikum, welche die Werbung gesehen haben und den Inhalt, können abgeleitet werden. So wie Daten können genutzt werden, um es zu verbessern oder die Benutzer Erfahrung zu verbessern das System und die Software.

Wenn du “Ich stimme zu” klickst, erlaubst du uns, die Cookies zu benutzen die Geräte Bezeichnung, den Web oder ähnliche Technologien zu benutzen. Deine Settings, können in deinem Gerät bei deinem Browser geändert werden.

Für den bestimmten Zweck, berechtigten Interessen beruhen darauf, mehr als auf den Inhalt. Du kannst mehr darüber in unseren Privaten und Cookie Politik lesen.